FW0610 Weather Reports


time (UTC)temp
C
wind
direction
speed
KPH
gust
KPH
rain 1hr
cm
rain 24hr
cm
rain mn
cm
humidity
%
barometer
mb
20260504081542 -1 0 0.0 0.0 0.00 0.03 0.00 89 1006.7
20260504044536 -3 0 0.0 0.0 0.00 0.03 0.00 89 1007.1
20260504043042 -3 0 0.0 0.0 0.00 0.03 0.00 89 1007.1
20260504041541 -3 0 0.0 0.0 0.00 0.03 0.00 89 1007.2
20260504040042 -3 0 0.0 0.0 0.00 0.03 0.00 89 1007.1
20260504034547 -3 0 0.0 0.0 0.00 0.03 0.03 89 1007.2
20260504033036 -3 0 0.0 0.0 0.00 0.03 0.03 89 1007.1
20260504031602 -3 0 0.0 0.0 0.00 0.03 0.03 88 1007.0
20260504030043 -2 0 0.0 0.0 0.00 0.03 0.03 88 1007.0
20260504024542 -2 0 0.0 0.0 0.00 0.03 0.03 87 1007.0
20260504023039 -2 0 0.0 0.0 0.00 0.03 0.03 87 1007.1
20260504021538 -2 0 0.0 0.0 0.00 0.03 0.03 86 1007.2
20260504020039 -1 0 0.0 0.0 0.00 0.03 0.03 85 1007.2
20260504014536 -1 0 0.0 0.0 0.00 0.03 0.03 84 1007.1
20260504013042 0 0 0.0 0.0 0.00 0.03 0.03 83 1007.1
20260504011539 0 0 0.0 0.0 0.00 0.03 0.03 81 1007.0
20260504010044 0 0 0.0 0.0 0.00 0.03 0.03 79 1006.9
20260504004538 1 0 0.0 0.0 0.00 0.03 0.03 77 1006.8
20260504003042 2 0 0.0 0.0 0.00 0.03 0.03 74 1006.8
20260504001601 3 0 0.0 0.0 0.00 0.03 0.03 70 1006.8
20260504000041 5 0 0.0 1.6 0.00 0.03 0.03 64 1006.6
20260503234540 6 0 0.0 0.0 0.00 0.03 0.03 58 1006.5
20260503233038 6 0 0.0 14.5 0.00 0.03 0.03 53 1006.5
20260503231546 7 0 0.0 6.4 0.00 0.03 0.03 55 1006.6
20260503230036 6 0 0.0 11.3 0.00 0.03 0.03 53 1006.5
20260503224548 6 285 4.8 16.1 0.00 0.03 0.03 54 1006.6
20260503223043 6 248 3.2 16.1 0.00 0.03 0.03 54 1006.6
20260503221540 6 302 3.2 17.7 0.00 0.03 0.03 54 1006.5
20260503220040 6 304 3.2 14.5 0.00 0.03 0.03 55 1006.5
20260503214543 6 0 4.8 19.3 0.00 0.03 0.03 56 1006.6
20260503213104 6 263 4.8 20.9 0.00 0.03 0.03 56 1006.6
20260503211602 6 279 6.4 19.3 0.00 0.03 0.03 54 1006.5
20260503210039 6 346 6.4 16.1 0.00 0.03 0.03 54 1006.3
20260503204557 6 284 3.2 24.1 0.00 0.03 0.03 55 1006.2
20260503203040 6 273 1.6 11.3 0.00 0.03 0.03 59 1006.1
20260503201540 6 236 6.4 20.9 0.00 0.03 0.03 60 1006.2
20260503200043 6 277 8.0 20.9 0.00 0.03 0.03 56 1006.3
20260503194541 6 294 3.2 20.9 0.00 0.03 0.03 56 1006.4
20260503193040 6 286 6.4 17.7 0.00 0.03 0.03 53 1006.5
20260503191612 6 38 4.8 27.4 0.00 0.03 0.03 53 1006.6
20260503190040 7 321 8.0 19.3 0.00 0.03 0.03 48 1006.4
20260503184537 6 303 9.7 27.4 0.00 0.05 0.03 53 1006.5
20260503183046 6 252 6.4 19.3 0.00 0.05 0.03 56 1006.5
20260503181542 5 252 6.4 19.3 0.00 0.05 0.03 55 1006.6
20260503180039 5 24 6.4 22.5 0.00 0.05 0.03 57 1006.8
20260503174551 6 227 6.4 24.1 0.00 0.05 0.03 59 1006.7
20260503173038 7 267 9.7 30.6 0.00 0.05 0.03 53 1006.5
20260503171550 7 55 3.2 22.5 0.00 0.05 0.03 52 1006.5